Regional Weather Roundup
Issued by NWS Wakefield, VA

Home | Current Version | Previous Version | Graphics & Text | Print | Product List | Glossary On
Versions: 1 2 3 4 5 6 7 8 9 10 11 12 13 14 15 16 17 18 19 20 21 22 23 24 25 26 27 28 29 30 31 32 33 34 35 36 37 38 39 40 41 42 43 44 45 46 47 48 49 50
731
ASUS41 KAKQ 051515
RWRAKQ

REGIONAL WEATHER ROUNDUP
NATIONAL WEATHER SERVICE WAKEFIELD VA
1100 AM EDT THU MAY 05 2016

Note: "fair" indicates few or no clouds below 12,000 feet with no
significant weather and/or obstructions to visibility. * = Denotes
station may not report precipitation (e.g., rain,snow,etc.),
thunder or fog.

VAZ042-051-052>054-056-051600-
NORTHERN VIRGINIA

CITY           SKY/WX    TMP DP  RH WIND       PRES   REMARKS
WASH NATIONAL  DRIZZLE   52  50  93 NE12      29.68S FOG
DULLES         DRIZZLE   52  48  86 N10       29.68S FOG
FORT BELVOIR   CLOUDY    51  49  92 CALM      29.68R FOG
QUANTICO       CLOUDY    54  49  83 E13       29.68R
FREDERICKSBRG* DRIZZLE   54  54 100 NE6       29.66S
STAFFORD*      CLOUDY    52  49  90 NE9       29.70S FOG
WARRENTON      RAIN      52  47  81 NE6       29.67S
CULPEPER*      CLOUDY    52  50  93 NE3       29.68S
MANASSAS*      PTSUNNY   52  52 100 MISG      29.68R FOG
LEESBURG*      CLOUDY    54  52  94 NE7       29.69S
WINCHESTER     CLOUDY    50  48  93 N5        29.69R FOG
FRONT ROYAL*   CLOUDY    50  48  93 NE7       29.67S
LURAY*         DRIZZLE   50  50 100 N10       29.66S
$$

VAZ048-049-060>072-079>083-051600-
CENTRAL AND SOUTH CENTRAL VIRGINIA

CITY           SKY/WX    TMP DP  RH WIND       PRES   REMARKS
RICHMOND       CLOUDY    52  50  93 NE12      29.63S FOG
CHESTERFIELD*  CLOUDY    54  39  58 NE8       29.63F
PETERSBURG*    CLOUDY    55  55 100 NE10      29.62S
HANOVER        LGT RAIN  51  49  92 VRB6      29.65F FOG
TAPPAHANNOCK*  CLOUDY    52  52  99 NE8       29.65S
QUINTON*       CLOUDY    52  51  95 MISG      29.62F
CHARLOTTSVILLE RAIN      51  48  89 NE10      29.65S FOG
GORDONSVILLE*  CLOUDY    50  50  99 N6        29.65S FOG
ORANGE*        LGT RAIN  52  52 100 CALM      29.68S
LOUISA*        DRIZZLE   55  54  94 NE10      29.64S
BUMPASS*       CLOUDY    50  50  98 E3        29.65S
FARMVILLE*     LGT RAIN  55  53  92 NE10G17   29.60S
CREWE*         CLOUDY    54  54 100 NE5       29.60F
FORT PICKETT*  NOT AVBL
CHASE CITY*    CLOUDY    55  54  95 NE6       29.57F
CLARKSVILLE*   CLOUDY    55  55 100 CALM      29.57S
SOUTH HILL*    CLOUDY    55  52  91 NE5       29.63F
LAWRENCEVILLE* CLOUDY    54  53  95 NE5       29.59S
EMPORIA*       CLOUDY    54  52  94 N8        29.60S
$$

VAZ088>098-051600-
SOUTHEAST VIRGINIA

CITY           SKY/WX    TMP DP  RH WIND       PRES   REMARKS
NORFOLK        CLOUDY    53  49  86 NE16G26   29.60F
VIRGINIA BEACH CLOUDY    56  48  74 NE20      29.59F
NORFOLK NAVAL  CLOUDY    54  50  86 NE15G24   29.62S
WEST POINT*    CLOUDY    54  50  87 N9        29.64S
SALUDA*        CLOUDY    53  50  91 N10G16    29.62F
NEWPORT NEWS   CLOUDY    54  50  86 NE8G17    29.61S
LANGLEY AFB    CLOUDY    53  51  91 E10       29.60S
FORT EUSTIS    CLOUDY    55  52  92 NE9       29.59S
WILLIAMSBURG*  FAIR      57  54  88 NE6       29.62S
HR EXEC AP*    CLOUDY    55  52  88 NE10G18   29.62S
FRANKLIN*      CLOUDY    54  51  88 NE9G16    29.60S
US460-WAKEFLD  CLOUDY    53  51  93 VRB5      29.61R FOG
$$

VAZ020-022-025-037-045-051600-
WEST CENTRAL AND SOUTHWEST VIRGINIA

CITY           SKY/WX    TMP DP  RH WIND       PRES   REMARKS
STAUNTON*      LGT RAIN  52  52 100 N13       29.66S
WAYNESBORO*    CLOUDY    49  47  93 NE6       29.64S
HOT SPRINGS VA DRIZZLE   41  41 100 N12       29.63S
LYNCHBURG      RAIN      52  51  97 NE5       29.63S FOG
DANVILLE       LGT RAIN  53  49  86 N9        29.62R
SOUTH BOSTON*  CLOUDY    51  50  95 N13       29.59F
MARTINSVILLE   CLOUDY    47  44  87 N9        29.66S
ROANOKE        LGT RAIN  48  45  89 W12       29.67S
BLACKSBURG     RAIN      45  43  92 NW5       29.70S
DUBLIN*        CLOUDY    46  42  88 N6        29.69S
MARION*        CLOUDY    47  36  65 W16       29.71F
HILLSVILLE*    CLOUDY    43  39  86 N13       29.65S
RICHLANDS*     CLOUDY    42  25  50 NW10      29.73R
WISE*          CLOUDY    43  34  70 W7        29.75R
ABINGDON*      CLOUDY    48  35  60 N8        29.73S
$$

MDZ021>025-VAZ099-100-051600-
SOUTHERN MARYLAND AND THE DELMARVA PENINSULA

CITY           SKY/WX    TMP DP  RH WIND       PRES   REMARKS
PATUXENT RIVER CLOUDY    52  46  80 NE13      29.66S
BAY BRIDGE APT NOT AVBL
LEONARDTOWN    CLOUDY    50  45  81 CALM      29.67S
DOVER          CLOUDY    50  50  98 N12       29.67S
GEORGETOWN     CLOUDY    50  45  83 NE16      29.67S
EASTON         CLOUDY   N/A N/A N/A NE13      29.71S
CAMBRIDGE      CLOUDY    50  45  81 NE10      29.66S
SALISBURY      CLOUDY    50  47  89 NE12      29.65S
OCEAN CITY     CLOUDY    50  46  86 NE14G22   29.64F
WALLOPS ISLAND CLOUDY    51  47  86 NE17      29.63S
ACCOMACK*      CLOUDY   N/A N/A N/A NE12G17   29.62S
$$

NCZ012>017-030>032-051600-
NORTH CENTRAL AND EASTERN NORTH CAROLINA

CITY           SKY/WX    TMP DP  RH WIND       PRES   REMARKS
ROANOKE RAPIDS CLOUDY    55  52  88 NE7G16    29.57F FOG
RALEIGH        PTSUNNY   58  53  84 N9        29.57R THUNDER
ELIZABETH CITY CLOUDY    54  51  90 NE17      29.57F
AHOSKIE*       RAIN      54  52  92 NE7       29.58F
EDENTON*       CLOUDY    56  56 100 NE8       29.58S
CURRITUCK*     NOT AVBL
KILL DEVIL HLS CLOUDY    53  52  95 N12G23    29.55R
MANTEO         CLOUDY    54  53  97 NE16G25   29.56R
CAPE HATTERAS  CLOUDY    59  56  89 NE12G25   29.51F
TARBORO*       LGT RAIN  56  55  93 NE7       29.57F
GOLDSBORO      LGT RAIN  59  59 100 NE7       29.52F
WASHINGTON     CLOUDY    58  55  88 NE10      29.55S
GREENVILLE     CLOUDY    59  54  82 NE6       29.59S
NEW BERN       CLOUDY    64  54  69 NE9       29.55S
WILMINGTON     CLOUDY    68  60  75 E9        29.51S
$$

VAZ048-051600-
ELSEWHERE

CITY           SKY/WX    TMP DP  RH WIND       PRES   REMARKS
HARRISBURG PA  CLOUDY    54  45  71 N6        29.70S
BALTIMORE      CLOUDY    51  47  86 NE12      29.68S FOG
ANNAPOLIS        N/A     52  47  83 NE9G18    29.68S
ANDREWS AFB    DRIZZLE   50  48  93 NE7       29.67R FOG
PHILADELPHIA   CLOUDY    53  43  68 NE13      29.69S
HENDERSON NC   DRIZZLE   55  55 100 NE5       29.58S
GREENSBORO     HVY RAIN  49  48  97 NW13      29.63R FOG
ROCKY MOUNT    LGT RAIN  56  55  97 NE10      29.55F
$$

VAZ100-051600-
MARINE

STATION/POSITION TIME  TEMP    WIND        PRES    WAVE   SWELL
                       AIR SEA DIR/SP/G            HT/PER HT/PER
                 (UTC) (F)     (DEG/KT/KT) (MB)    (FT/S) (FT/S)
BRANDYWINE LGT   1400   48      50/ 16/ 19 1004.7R
CAPE MAY NJ      1400   49 56   40/  9/ 17 1004.2S
LEWES DE         1400   49 54   40/ 14/ 16 1004.5F
15NM E FENWICK I 1450   49 51              1003.2F   6/ 7
OCEAN-CITY-INLET 1400   49 54   40/  9/ 19 1003.2F
WACHAPREAGUE VA  1400   51 58   40/ 22/ 25 1002.4F
THOMAS POINT MD  1500   50 58   30/ 12/ 14 1006.1F
GOOSES REEF MD   1500   52 58   40/ 14/ 16 1005.5F   2/ 3
COVE POINT MD    1400   50      70/ 13/ 15 1004.8F
SOLOMONS ISLAND  1400   51 60   40/  9/ 13   N/A
BISHOPS HEAD MD  1400   51 58   50/ 10/ 13 1003.3F
PINEY POINT MD   1400           60/ 10/ 13   N/A
POTOMAC MD       1500   52 60   50/ 14/ 17 1002.8R   1/ 2
CAMBRIDGE MD     1400   51 61   40/ 13/ 16 1003.7F
LEWISETTA VA     1400   52 62   60/  9/ 13 1003.6F
RAPPAHANNOCK LGT 1400           30/ 15/ 18 1003.5S
STINGRAY PT      1500   53 61   50/ 16/ 17 1003.2F   2/ 3
YORK RVR RNG VA  1400   53      40/ 19/ 22 1001.8F
YORKTOWN VA      1400   53 63   40/ 13/ 17 1002.3F
JAMESTOWN VA     1500   54 67   30/  6/ 10   N/A     0
DOMINION TERM VA 1400   53      60/  8/ 12 1002.6F
KIPTOPEKE VA     1400      61   50/ 11/ 18   N/A
CHES BAY BRIDGE  1400   52 60   20/ 19/ 25 1001.9R
CAPE HENRY VA    1400   50      40/ 18/ 23   N/A
CHESAPEAKE LGHT  1400   49      30/ 23/ 25 1002.3F
WILLOUBY STN VA  1400   53      50/ 16/ 19 1003.3F
CAPE HENRY BUOY  1412      55                N/A     6/ 6
CAPE CHARLES BUO 1426      57                N/A     6/ 6   2/11
OFFSHORE WE BUOY 1421      54                N/A     6/ 7   2/12
64NM E OF VA BCH 1450   51 52   20/ 19/ 25 1000.1F   7/ 7   2/11
DUCK PIER NC     1400   51 61   10/ 19/ 25 1000.2F
44100 DUCK FRF   1424      56                N/A     6/ 6
44056 DUCK FRF   1411      59                N/A     6/ 6
OREGON INLET NC  1400   53 61  360/ 13/ 21 1000.1F
HATTERAS NC      1400   59 68  360/ 21/ 24  999.1R
DIAMOND SHLS NC  1450   59 71   10/ 19/ 25  999.0R   5/ 6   2/ 9
CAPE LOOKOUT NC  1500   63      30/ 15/ 17  998.9F
$$




USA.gov is the U.S. government's official web portal to all federal, state and local government web resources and services.